Impacts METAR Board
IDs:

KJFK - New York/Kennedy Int, NY, US

Updated at: 1700 UTC 26 Apr 2018
Potential Impact None Slight Moderate High
Time 26/05Z 26/06Z 26/07Z 26/08Z 26/09Z 26/10Z 26/11Z 26/12Z 26/13Z 26/14Z 26/15Z 26/16Z 26/17Z
Temp51 51 51 54 54 58 57 57 60 60 60 62 64
Dewpt51 51 51 54 54 53 52 49 48 42 42 42 41
Altim29.63 29.62 29.60 29.59 29.61 29.63 29.67 29.69 29.70 29.72 29.74 29.74 29.74
VIS0.25 2 3 6 6 10 10 10 10 10 10 10 10
CIG4 4 95 38 100 60 55 -- -- -- -- -- --
CoverOVCOVCOVCOVCBKNBKNBKNSCTSCTFEWFEWSCTSCT
FltCatLIFRLIFRMVFRVFRVFRVFRVFRVFRVFRVFRVFRVFRVFR
WXBR-RA BRBRBRBR----------------
WDir0230240310250290280280280300290290260
WSpd0 3 4 5 7 9 11 12 18 15 14 16 14
WGst-- -- -- -- -- -- -- -- 22 20 22 -- --
Raw hourly METARs
KJFK 260451Z 00000KT 1/4SM R04R/2600V5500FT BR OVC004 11/11 A2963 RMK AO2 SFC VIS 1 1/2 RAE13B32E47 SLP035 P0001 T01060106 401390106 $
KJFK 260551Z 23003KT 2SM -RA BR BKN004 OVC050 11/11 A2962 RMK AO2 RAB51 SLP028 P0000 60001 T01060106 10117 20106 58018 $
KJFK 260651Z 24004KT 3SM BR SCT005 SCT039 OVC095 11/11 A2960 RMK AO2 SFC VIS 4 RAE41 SLP023 P0004 T01060106 $
KJFK 260751Z 31005KT 6SM BR FEW005 BKN038 OVC090 12/12 A2959 RMK AO2 SLP019 T01220122 $
KJFK 260851Z 25007KT 6SM BR FEW005 SCT027 BKN100 BKN240 12/12 A2961 RMK AO2 SLP025 60004 T01220122 55003 $
KJFK 260951Z 29009KT 10SM BKN060 BKN250 14/12 A2963 RMK AO2 SLP034 T01440117 $
KJFK 261051Z 28011KT 10SM SCT023 BKN055 14/11 A2967 RMK AO2 SLP046 T01390111 $
KJFK 261151Z 28012KT 10SM FEW030 SCT055 SCT250 14/09 A2969 RMK AO2 SLP053 60004 70006 T01390094 10144 20106 51028 $
KJFK 261251Z 28018G22KT 10SM SCT027 SCT065 SCT250 16/09 A2970 RMK AO2 SLP055 T01560089 $
KJFK 261351Z 30015G20KT 10SM FEW033 FEW065 FEW250 16/06 A2972 RMK AO2 SLP063 T01560056
KJFK 261451Z 29014G22KT 10SM FEW040 FEW250 16/06 A2974 RMK AO2 SLP070 T01560056 53017
KJFK 261551Z 29016KT 10SM FEW040 SCT250 17/06 A2974 RMK AO2 SLP070 T01670056
KJFK 261651Z 26014KT 10SM FEW045 SCT250 18/05 A2974 RMK AO2 SLP072 T01780050



Page loaded:  17:07 UTC  |   10:07 AM Pacific  |   11:07 AM Mountain  |   12:07 PM Central  |   01:07 PM Eastern

 

ADVISORIES

FORECASTS

FORECASTS

OBSERVATIONS

USER TOOLS

ABOUT US